Showing default

LEMUR-2-FINNIAN, 66782

Orbit data source: Space-Track

LEMUR-2-FINNIAN, 66782 is an American payload satellite in SSO that was launched on Fri, 28 Nov 2025 UTC via an FALCON 9 launch vehicle from the Air Force Western Test Range (AFWTR). Payload-class satellites include a variety of spacecraft equipped with specific instruments for various scientific and technological missions. These include communications satellites like Starlink; space stations such as the ISS; scientific satellites like the Hubble; Earth observation satellites from companies like Planet Labs, Umbra, and HawkEye 360; GPS; miniature CubeSats for education and research; and military/defense satellites.

Loading next visibility...
Identifier
66782, 2025-276DX
Orbit
SSO
Country
Flag of USUS
Related business
Manufacturer
Spire/Glasgow
Mission
Operational spacecraft
Bus & Motor
CUBESAT 4U, Unknown motor
Mass
5 kg wet, 5 kg dry
Launch date (UTC)
2025-11-28 (4 months ago)
Launch vehicle
FALCON 9
Launch site
Air Force Western Test Range (AFWTR)
Object type
Payload
Rocket body
Debris
Shape & HBR
Unknown
Radar Cross Section
RCS unknown

Expand to show TLE details & history
Last TLE update: 9 hours ago

TLE from 9 hours ago
0 LEMUR-2-FINNIAN
1 66782U 25276DX  26095.43186948  .00009495  00000-0  77575-3 0  9997
2 66782  97.5333 168.7981 0006067  27.0913 333.0626 14.99578247  9099
Epoch: 2026-04-05T10:21Z
TLE epoch observation values (Epoch: 2026-04-05T10:21:53.523Z)
Latitude
-0.00002°
Longitude
179.58771°
Altitude
567.5 km
Speed
7.579 km/s
True Right ascension
11h 15m 11s
True Declination
0° 00' 00"
Sunlit
Object was in full shadow at epoch
Visualization orbit readout
Latitude
Unknown
Longitude
Unknown
Altitude
Unknown
Speed
Unknown
Apparent Right ascension
Unknown
Apparent Declination
Unknown
Sunlit
N/A
Visualization observer readout
Local Sidereal Time
01:43:12
Azimuth
Unknown
Elevation
Unknown
Doppler factor
Unknown
Orbital elements
Apogee altitude
569.41 km
Perigee altitude
560.985 km
Semi-major axis
6,943.334 km
Eccentricity
0.00061
Inclination
97.5333°
RAAN
168.7981°
Arg. of periapsis
27.0913°
True anomaly
333.03108°
Mean anomaly
333.0626°
Eccentric anomaly
333.04684°
Mean motion
3.75138 °/min
Orbital period
95.96 mins
BSTAR
0.00077575
Loading maneuver chart data...
Computing Atmospheric mass density...
Loading historical data...
Loading historical data...
Loading historical data...
Loading historical data...
Loading historical data...
Loading historical data...
Loading historical data...

Documentation

Showing up to 5 results
|